Weather in Molochnyye Dvory

Russia / Tula Oblast     53°39′09″N   37°14′06″E
temp.,
°C
wind,
m/s
gust,
m/s
humid.,
%
clouds,
%
prec.,
mm/h
press.,
hPa
HPBL,
m
24 september, fri
fri2400:00+8sw3591100 0.3 1010306
03:00+7sw2591100 0.5 1009333
06:00+7ssw4887100 0.1 1007454
09:00+7s61186100 0.1 1006911
12:00+9s71275100 0.0 10051253
15:00+11s71164100 0.1 10041633
18:00+9s71370100 0.0 10041185
21:00+8sse61080100 0.0 10041128
25 september, sat
sat2500:00+8sse5984100 0.0 1005588
03:00+8sse5888100 0.2 1005485
06:00+8sse4789100 0.1 1006383
09:00+8s4787100 0.1 1008454
12:00+10ssw457894 0.1 1008816
15:00+12ssw346764 0.3 10081024
18:00+10sw4782100 0.3 1009288
21:00+10sw4882100 0.3 1008298
26 september, sun
sun2600:00+9sw51092100 0.1 1007572
03:00+9wsw51095100 1.1 1006505
06:00+9w51098100 1.3 1005590
09:00+9nw7118880 3.9 1007813
12:00+9nw8128687 0.5 1009955
15:00+9nw81281100 0.9 10101018
18:00+9nnw91383100 0.1 10111299
21:00+8nnw81488100 0.8 1012828
27 september, mon
mon2700:00+8nnw71292100 0.4 1014787
03:00+8n61195100 0.7 1016614
06:00+8n5119498 0.2 1018524
09:00+9n4994100 0.4 1020517
12:00+11nne5869100 0.3 10211183
15:00+11n5765100 0.3 10221346
18:00+10n4878100 0.3 1023496
21:00+8nne4890100 0.4 1024474
28 september, tue
tue2800:00+8nne4792100 0.1 1025449
03:00+8ne3792100 0.1 1026421
06:00+7nne3694100 0.0 1027429
09:00+8ne4689100 0.1 1029525
12:00+8ne4585100 0.1 1030618
15:00+9ne448199 0.2 1031671
18:00+8ne3587100 0.1 1031344
21:00+7ne3691100 0.1 1032307